Total_Precipitation_Accumulation
1.89 1.87 2.60 3.64 4.28 3.80 3.41 2.77 2.23 1.90 1.57 1.23 0.98 0.96 1.41 1.95 2.52 2.91 2.79 2.55 1.98 1.68 1.78 2.55 3.21 2.86 2.48 2.34 2.45 2.66 2.56 2.53 2.37 2.31 2.17 2.01 1.75 1.62 1.58 1.43 1.35 1.36 1.24 1.13 1.20 1.40 1.34 1.32 1.36
1.78 2.51 3.45 4.47 4.18 3.40 3.23 2.61 2.20 1.75 1.19 0.94 0.75 0.76 0.98 1.03 1.00 1.52 2.64 2.72 1.85 1.51 1.60 2.14 3.11 2.76 2.59 2.52 2.55 2.55 2.48 2.54 2.39 2.26 2.07 1.90 1.72 1.74 1.75 1.74 1.72 1.56 1.33 1.24 1.24 1.42 1.34 1.23 1.33
1.93 3.19 4.37 4.43 3.35 2.99 3.18 2.53 1.84 1.31 0.90 0.87 0.81 0.71 0.88 1.19 1.26 1.94 2.72 2.34 1.69 1.45 1.58 2.42 3.13 2.78 2.62 2.59 2.57 2.45 2.52 2.56 2.39 2.17 1.95 1.75 1.77 2.04 2.09 1.96 1.83 1.59 1.39 1.28 1.26 1.31 1.33 1.25 1.24
2.35 3.60 3.82 3.40 3.02 2.55 2.34 2.06 1.54 1.47 1.10 0.78 0.75 0.82 0.81 1.19 1.44 1.90 2.11 1.84 1.66 1.65 1.67 2.44 3.16 2.94 2.70 2.60 2.52 2.46 2.51 2.61 2.56 2.26 1.96 1.80 1.82 1.91 1.95 1.86 1.74 1.55 1.39 1.28 1.32 1.35 1.32 1.29 1.23
2.79 3.46 3.48 3.06 2.86 2.49 1.83 1.62 1.43 1.61 1.45 0.96 0.77 1.05 1.24 1.64 1.75 1.80 1.83 1.81 1.57 1.60 1.66 2.14 2.87 2.83 2.62 2.50 2.47 2.60 2.64 2.62 2.60 2.38 2.07 1.94 1.91 1.89 1.93 1.85 1.71 1.45 1.35 1.28 1.40 1.41 1.34 1.24 1.24
3.10 3.13 3.39 3.22 3.02 2.61 2.07 1.68 1.51 1.52 1.35 1.01 0.94 1.18 1.57 2.14 2.16 2.06 1.78 1.79 1.73 1.60 1.57 1.86 2.47 2.72 2.62 2.59 2.50 2.58 2.66 2.64 2.49 2.18 1.99 1.88 1.92 1.95 1.96 1.86 1.73 1.48 1.42 1.38 1.35 1.35 1.32 1.27 1.29
2.97 2.99 2.95 2.70 2.94 3.13 2.46 1.63 1.66 1.55 1.47 1.21 0.94 1.28 1.64 2.32 2.14 2.04 1.90 1.85 1.91 1.81 1.78 1.91 2.21 2.44 2.81 2.88 2.72 2.71 2.75 2.66 2.43 2.06 1.96 1.89 1.87 1.76 1.78 1.77 1.66 1.51 1.48 1.37 1.28 1.27 1.26 1.32 1.34
2.34 2.43 2.36 2.43 2.83 3.02 2.17 1.36 1.23 1.43 1.47 1.00 0.85 1.21 1.61 2.00 1.92 2.00 2.05 2.04 1.95 1.88 1.85 1.78 1.93 2.06 2.35 2.58 2.81 2.92 2.84 2.72 2.53 2.15 2.00 1.94 1.86 1.70 1.65 1.54 1.55 1.50 1.53 1.53 1.41 1.34 1.31 1.36 1.40
2.16 2.52 2.65 2.81 2.69 2.48 1.67 1.38 1.20 1.09 1.16 0.98 0.87 1.00 1.39 1.47 1.61 1.95 2.16 2.14 1.89 1.72 1.63 1.56 1.66 1.81 2.03 2.28 2.50 2.80 2.76 2.67 2.47 2.11 2.03 1.98 1.76 1.49 1.46 1.40 1.71 1.62 1.63 1.64 1.61 1.59 1.52 1.39 1.31
2.26 2.65 2.62 2.25 1.79 1.69 1.44 1.29 1.20 1.14 1.24 1.21 1.09 1.15 1.48 1.65 1.71 1.87 1.93 1.83 1.65 1.70 1.55 1.40 1.44 1.57 1.70 1.85 2.37 2.47 2.16 2.01 1.84 1.95 1.90 1.83 1.78 1.59 1.20 1.37 1.76 1.87 1.85 1.66 1.59 1.66 1.42 1.07 0.93
1.79 2.02 1.75 1.72 1.38 1.21 1.23 1.18 1.07 1.27 1.45 1.21 1.19 1.27 1.59 1.78 1.70 1.73 1.71 1.58 1.50 1.46 1.38 1.30 1.30 1.27 1.28 1.47 1.82 2.06 2.09 2.02 1.83 1.72 1.68 1.73 1.65 1.44 1.23 1.31 1.41 1.40 1.35 1.24 1.24 1.17 0.94 0.86 0.91
1.55 1.47 1.25 1.37 1.20 1.18 1.23 1.11 1.08 1.15 1.23 0.95 1.03 1.23 1.55 1.71 1.70 1.62 1.52 1.46 1.37 1.27 1.23 1.17 1.10 1.07 1.04 1.15 1.25 1.36 1.61 1.71 1.66 1.44 1.29 1.35 1.46 1.41 1.22 1.22 1.25 1.26 1.23 1.28 1.27 1.19 1.06 1.01 1.00
1.70 1.51 1.30 1.25 1.19 1.14 1.12 1.09 1.01 0.99 0.92 0.93 1.04 1.36 1.65 1.88 1.97 1.91 1.61 1.34 1.22 1.23 1.21 1.10 0.96 0.97 0.99 1.09 1.15 1.08 1.30 1.47 1.52 1.46 1.26 1.18 1.21 1.26 1.20 1.08 1.17 1.18 1.16 1.15 1.16 1.13 1.16 1.24 1.20
1.56 1.42 1.39 1.36 1.22 1.08 1.11 1.07 1.00 1.16 1.02 1.02 1.08 1.28 1.41 1.60 1.67 1.61 1.57 1.32 1.13 1.10 1.16 1.08 1.01 1.05 1.02 0.97 1.02 1.02 1.09 1.22 1.24 1.35 1.30 1.24 1.18 1.15 1.17 1.15 1.21 1.25 1.24 1.18 1.10 1.05 1.19 1.24 1.26
1.24 1.48 1.52 1.42 1.26 1.14 1.07 1.29 1.17 1.22 1.16 1.21 1.21 1.19 1.28 1.36 1.43 1.33 1.21 1.04 1.02 0.99 0.97 0.92 0.92 1.02 1.01 1.00 1.01 1.01 1.14 1.19 1.18 1.21 1.17 1.24 1.19 1.17 1.18 1.18 1.22 1.24 1.30 1.30 1.25 1.21 1.28 1.30 1.38
1.37 1.70 1.95 1.57 1.34 1.28 1.33 1.59 1.36 1.32 1.31 1.19 1.14 1.16 1.18 1.25 1.35 1.33 1.21 1.00 0.93 0.88 0.87 0.85 0.75 0.87 1.00 1.08 1.13 1.23 1.28 1.29 1.30 1.22 1.13 1.13 1.11 1.12 1.20 1.21 1.24 1.33 1.30 1.34 1.42 1.43 1.48 1.50 1.54
1.67 1.71 1.68 1.61 1.31 1.30 1.37 1.42 1.29 1.34 1.29 1.13 1.02 1.01 0.97 1.03 1.10 1.11 1.12 1.03 0.94 0.89 0.90 0.92 0.85 0.89 1.01 1.07 1.22 1.32 1.42 1.48 1.57 1.49 1.45 1.38 1.25 1.26 1.37 1.42 1.42 1.44 1.48 1.46 1.39 1.41 1.53 1.66 1.65
1.53 1.25 1.27 1.36 1.23 1.16 1.21 1.12 1.13 1.25 1.25 1.14 0.97 0.91 0.84 0.87 0.89 0.90 0.96 0.99 0.98 0.94 0.94 0.99 1.05 1.07 1.19 1.35 1.58 1.80 1.92 2.05 2.15 2.07 1.95 1.76 1.54 1.49 1.66 1.71 1.58 1.62 1.74 1.81 1.67 1.74 1.65 1.60 1.68
0.95 0.92 0.98 0.94 0.85 0.95 0.94 0.94 0.97 0.99 1.04 0.96 0.81 0.78 0.80 0.78 0.80 0.82 0.86 0.94 0.97 0.96 0.95 0.94 0.99 1.09 1.20 1.41 1.72 2.23 2.51 2.59 2.46 2.41 2.31 2.08 1.85 1.82 2.00 2.04 2.02 2.02 2.04 2.02 1.94 2.12 2.05 1.77 1.68
0.81 0.88 0.89 0.84 0.75 0.80 0.76 0.76 0.75 0.75 0.73 0.69 0.62 0.62 0.72 0.72 0.81 0.80 0.79 0.81 0.83 0.81 0.85 1.00 1.05 1.11 1.22 1.47 1.77 2.15 2.57 2.63 2.56 2.45 2.35 2.24 2.11 2.06 2.09 2.31 2.44 2.40 2.60 2.63 2.39 2.50 2.54 2.14 1.89
0.76 0.82 0.82 0.90 0.86 0.76 0.71 0.79 0.76 0.68 0.60 0.53 0.50 0.52 0.59 0.60 0.67 0.73 0.77 0.79 0.77 0.74 0.70 0.83 1.00 1.19 1.48 1.75 2.05 2.23 2.51 2.62 2.62 2.48 2.41 2.42 2.35 2.23 2.30 2.39 2.55 2.56 2.66 2.87 2.99 2.87 2.95 2.73 2.30
0.80 0.57 0.54 0.64 0.95 1.02 0.77 0.95 0.77 0.62 0.65 0.57 0.52 0.49 0.52 0.55 0.59 0.64 0.72 0.77 0.73 0.68 0.65 0.74 0.89 1.18 1.57 1.91 2.13 2.39 2.75 2.85 2.69 2.60 2.51 2.50 2.50 2.48 2.60 2.59 2.65 2.67 2.69 2.81 2.97 2.95 3.13 3.24 2.82
0.58 0.49 0.51 0.58 0.79 0.87 0.68 0.72 0.70 0.61 0.66 0.64 0.56 0.53 0.50 0.48 0.48 0.53 0.57 0.61 0.65 0.72 0.74 0.81 1.00 1.28 1.60 1.83 2.10 2.44 2.63 2.74 2.79 2.67 2.61 2.58 2.60 2.61 2.66 2.73 2.86 2.84 2.81 2.75 2.96 3.05 3.16 3.12 3.07
0.43 0.55 0.65 0.66 0.80 0.87 0.50 0.57 0.70 0.60 0.47 0.49 0.52 0.52 0.47 0.44 0.42 0.50 0.58 0.64 0.70 0.76 0.87 0.98 1.14 1.34 1.60 1.82 2.09 2.24 2.43 2.58 2.62 2.65 2.58 2.53 2.57 2.66 2.54 2.47 2.65 2.71 2.73 2.70 2.85 2.99 3.13 3.11 3.17
0.47 0.81 1.14 1.14 1.11 0.87 0.44 0.54 0.67 0.48 0.37 0.40 0.44 0.47 0.44 0.46 0.52 0.62 0.72 0.86 0.97 0.99 1.04 1.14 1.26 1.46 1.61 1.73 1.89 1.99 2.09 2.21 2.18 2.32 2.37 2.48 2.47 2.49 2.49 2.41 2.43 2.47 2.40 2.39 2.51 2.56 2.64 2.79 2.98
0.42 0.64 1.06 1.15 0.97 0.74 0.57 0.76 0.73 0.46 0.38 0.40 0.41 0.46 0.50 0.57 0.67 0.84 1.00 1.17 1.25 1.26 1.29 1.36 1.43 1.50 1.54 1.59 1.69 1.83 1.90 1.94 1.92 1.89 1.90 2.04 2.20 2.22 2.26 2.29 2.25 2.29 2.32 2.26 2.36 2.38 2.38 2.43 2.49
0.44 0.51 0.56 0.74 0.64 0.66 0.66 0.76 0.71 0.50 0.47 0.46 0.49 0.54 0.64 0.84 0.94 1.10 1.27 1.39 1.35 1.35 1.36 1.42 1.47 1.49 1.49 1.54 1.59 1.57 1.62 1.66 1.68 1.65 1.71 1.74 1.80 1.79 1.83 1.89 2.04 2.16 2.21 2.23 2.33 2.39 2.36 2.29 2.27
0.40 0.55 0.71 1.00 1.10 0.95 0.78 0.89 0.88 0.69 0.57 0.51 0.59 0.71 0.88 1.15 1.31 1.48 1.67 1.65 1.57 1.58 1.65 1.56 1.48 1.48 1.53 1.56 1.57 1.51 1.54 1.58 1.55 1.45 1.49 1.46 1.43 1.43 1.47 1.57 1.76 2.08 2.22 2.24 2.30 2.34 2.34 2.34 2.27
0.43 0.59 0.77 1.06 1.13 1.29 1.32 1.36 1.04 0.83 0.76 0.83 0.96 1.07 1.27 1.53 1.68 1.81 1.93 1.92 1.75 1.64 1.62 1.56 1.44 1.40 1.40 1.46 1.57 1.54 1.51 1.52 1.53 1.44 1.34 1.30 1.29 1.29 1.36 1.43 1.58 1.75 1.99 2.22 2.37 2.36 2.29 2.26 2.21
0.52 0.74 0.96 1.44 1.38 1.22 1.41 1.54 1.12 0.93 0.93 0.94 1.01 1.18 1.40 1.52 1.61 1.67 1.68 1.77 1.68 1.59 1.50 1.46 1.38 1.25 1.26 1.31 1.42 1.54 1.46 1.43 1.44 1.35 1.39 1.27 1.19 1.18 1.21 1.37 1.57 1.68 1.77 1.87 1.97 2.03 2.06 2.08 2.09